Time,TemperatureF,DewpointF,PressureIn,WindDirection,WindDirectionDegrees,WindSpeedMPH,WindSpeedGustMPH,Humidity,HourlyPrecipIn,Conditions,Clouds,dailyrainin,SoftwareType,DateUTC
2013-06-06 00:07:00,56.4,51.0,30.04,SW,231,0.0,2.0,83,0.00,,,0.00,weatherlink.com 1.10,2013-06-06 07:07:00,
2013-06-06 00:22:00,56.3,51.0,30.04,WNW,295,1.0,3.0,83,0.00,,,0.00,weatherlink.com 1.10,2013-06-06 07:22:00,
2013-06-06 00:37:00,56.0,51.0,30.04,WNW,295,0.0,5.0,83,0.00,,,0.00,weatherlink.com 1.10,2013-06-06 07:37:00,
2013-06-06 00:52:00,55.9,51.0,30.03,WNW,297,0.0,4.0,83,0.00,,,0.00,weatherlink.com 1.10,2013-06-06 07:52:00,
2013-06-06 01:07:00,55.7,51.0,30.03,WNW,288,0.0,4.0,83,0.00,,,0.00,weatherlink.com 1.10,2013-06-06 08:07:00,
2013-06-06 01:22:00,55.4,51.0,30.03,WNW,297,0.0,4.0,84,0.00,,,0.00,weatherlink.com 1.10,2013-06-06 08:22:00,
2013-06-06 01:37:00,54.8,50.0,30.03,WNW,285,0.0,2.0,85,0.00,,,0.00,weatherlink.com 1.10,2013-06-06 08:37:00,
2013-06-06 01:53:00,54.3,50.0,30.03,WNW,292,0.0,2.0,86,0.00,,,0.00,weatherlink.com 1.10,2013-06-06 08:53:00,
2013-06-06 02:08:00,53.7,50.0,30.04,West,264,0.0,0.0,87,0.00,,,0.00,weatherlink.com 1.10,2013-06-06 09:08:00,
2013-06-06 02:23:00,53.0,50.0,30.04,WNW,293,0.0,0.0,88,0.00,,,0.00,weatherlink.com 1.10,2013-06-06 09:23:00,
2013-06-06 02:38:00,52.1,49.0,30.04,NW,311,0.0,0.0,90,0.00,,,0.00,weatherlink.com 1.10,2013-06-06 09:38:00,
2013-06-06 02:53:00,51.4,49.0,30.04,NW,311,0.0,0.0,91,0.00,,,0.00,weatherlink.com 1.10,2013-06-06 09:53:00,
2013-06-06 03:08:00,51.0,49.0,30.04,NW,311,0.0,0.0,91,0.00,,,0.00,weatherlink.com 1.10,2013-06-06 10:08:00,
2013-06-06 03:23:00,49.8,48.0,30.04,NW,311,0.0,0.0,92,0.00,,,0.00,weatherlink.com 1.10,2013-06-06 10:23:00,
2013-06-06 03:38:00,49.6,48.0,30.04,NW,311,0.0,0.0,94,0.00,,,0.00,weatherlink.com 1.10,2013-06-06 10:38:00,
2013-06-06 03:53:00,49.3,48.0,30.04,East,87,0.0,0.0,94,0.00,,,0.00,weatherlink.com 1.10,2013-06-06 10:53:00,
2013-06-06 04:08:00,48.5,47.0,30.05,East,87,0.0,0.0,94,0.00,,,0.00,weatherlink.com 1.10,2013-06-06 11:08:00,
2013-06-06 04:23:00,47.9,47.0,30.04,East,87,0.0,0.0,95,0.00,,,0.00,weatherlink.com 1.10,2013-06-06 11:23:00,
2013-06-06 04:38:00,47.6,46.0,30.04,East,87,0.0,0.0,95,0.00,,,0.00,weatherlink.com 1.10,2013-06-06 11:38:00,
2013-06-06 04:53:00,47.0,46.0,30.04,East,87,0.0,0.0,95,0.00,,,0.00,weatherlink.com 1.10,2013-06-06 11:53:00,
2013-06-06 05:08:00,46.5,46.0,30.05,East,87,0.0,0.0,96,0.00,,,0.00,weatherlink.com 1.10,2013-06-06 12:08:00,
2013-06-06 05:23:00,46.3,45.0,30.05,East,87,0.0,0.0,96,0.00,,,0.00,weatherlink.com 1.10,2013-06-06 12:23:00,
2013-06-06 05:38:00,46.0,45.0,30.05,East,87,0.0,0.0,96,0.00,,,0.00,weatherlink.com 1.10,2013-06-06 12:38:00,
2013-06-06 05:53:00,46.1,45.0,30.05,East,87,0.0,0.0,97,0.00,,,0.00,weatherlink.com 1.10,2013-06-06 12:53:00,
2013-06-06 06:09:00,47.3,47.0,30.05,East,87,0.0,0.0,97,0.00,,,0.00,weatherlink.com 1.10,2013-06-06 13:09:00,
2013-06-06 06:23:00,48.5,48.0,30.06,North,352,0.0,0.0,97,0.00,,,0.00,weatherlink.com 1.10,2013-06-06 13:23:00,
2013-06-06 06:38:00,48.9,48.0,30.06,ENE,77,0.0,1.0,98,0.00,,,0.00,weatherlink.com 1.10,2013-06-06 13:38:00,
2013-06-06 06:53:00,49.3,49.0,30.06,WNW,296,0.0,0.0,97,0.00,,,0.00,weatherlink.com 1.10,2013-06-06 13:53:00,
2013-06-06 07:08:00,49.7,49.0,30.06,East,79,0.0,0.0,97,0.00,,,0.00,weatherlink.com 1.10,2013-06-06 14:08:00,
2013-06-06 07:23:00,50.0,49.0,30.07,West,268,0.0,3.0,97,0.00,,,0.00,weatherlink.com 1.10,2013-06-06 14:23:00,
2013-06-06 07:38:00,50.6,50.0,30.07,West,281,0.0,1.0,97,0.00,,,0.00,weatherlink.com 1.10,2013-06-06 14:38:00,
2013-06-06 07:53:00,51.3,51.0,30.07,NW,309,1.0,3.0,97,0.00,,,0.00,weatherlink.com 1.10,2013-06-06 14:53:00,
2013-06-06 08:08:00,51.9,51.0,30.07,East,86,0.0,5.0,96,0.00,,,0.00,weatherlink.com 1.10,2013-06-06 15:08:00,
2013-06-06 08:23:00,52.7,51.0,30.07,WNW,286,0.0,0.0,94,0.00,,,0.00,weatherlink.com 1.10,2013-06-06 15:23:00,
2013-06-06 08:38:00,53.3,51.0,30.07,WNW,300,0.0,1.0,93,0.00,,,0.00,weatherlink.com 1.10,2013-06-06 15:38:00,
2013-06-06 08:53:00,53.6,51.0,30.08,NW,307,0.0,3.0,92,0.00,,,0.00,weatherlink.com 1.10,2013-06-06 15:53:00,
2013-06-06 09:08:00,54.5,52.0,30.07,NNW,330,0.0,4.0,91,0.00,,,0.00,weatherlink.com 1.10,2013-06-06 16:08:00,
2013-06-06 09:23:00,55.7,53.0,30.07,SW,236,0.0,3.0,89,0.00,,,0.00,weatherlink.com 1.10,2013-06-06 16:23:00,
2013-06-06 09:38:00,57.1,54.0,30.07,ESE,105,0.0,4.0,88,0.00,,,0.00,weatherlink.com 1.10,2013-06-06 16:38:00,
2013-06-06 09:53:00,58.8,54.0,30.07,West,269,0.0,5.0,84,0.00,,,0.00,weatherlink.com 1.10,2013-06-06 16:53:00,
2013-06-06 10:09:00,60.7,55.0,30.06,East,94,0.0,0.0,81,0.00,,,0.00,weatherlink.com 1.10,2013-06-06 17:09:00,
2013-06-06 10:24:00,62.4,55.0,30.06,SSW,210,0.0,5.0,77,0.00,,,0.00,weatherlink.com 1.10,2013-06-06 17:24:00,
2013-06-06 10:39:00,63.5,55.0,30.06,East,96,1.0,5.0,74,0.00,,,0.00,weatherlink.com 1.10,2013-06-06 17:39:00,
2013-06-06 10:54:00,65.2,56.0,30.06,NW,307,0.0,6.0,72,0.00,,,0.00,weatherlink.com 1.10,2013-06-06 17:54:00,
2013-06-06 11:09:00,66.5,56.0,30.06,NE,37,0.0,5.0,69,0.00,,,0.00,weatherlink.com 1.10,2013-06-06 18:09:00,
2013-06-06 11:25:00,67.7,55.0,30.05,WNW,283,2.0,8.0,64,0.00,,,0.00,weatherlink.com 1.10,2013-06-06 18:25:00,
2013-06-06 11:39:00,68.8,55.0,30.05,ESE,107,0.0,5.0,62,0.00,,,0.00,weatherlink.com 1.10,2013-06-06 18:39:00,
2013-06-06 11:54:00,69.6,55.0,30.05,NE,56,0.0,6.0,61,0.00,,,0.00,weatherlink.com 1.10,2013-06-06 18:54:00,
2013-06-06 12:09:00,70.9,58.0,30.05,NW,323,2.0,8.0,63,0.00,,,0.00,weatherlink.com 1.10,2013-06-06 19:09:00,
2013-06-06 12:24:00,71.2,56.0,30.05,NW,319,1.0,9.0,58,0.00,,,0.00,weatherlink.com 1.10,2013-06-06 19:24:00,
2013-06-06 12:39:00,72.9,56.0,30.05,ESE,117,0.0,6.0,55,0.00,,,0.00,weatherlink.com 1.10,2013-06-06 19:39:00,
2013-06-06 12:54:00,73.8,55.0,30.04,NE,38,2.0,8.0,53,0.00,,,0.00,weatherlink.com 1.10,2013-06-06 19:54:00,
2013-06-06 13:09:00,74.3,55.0,30.04,NW,304,4.0,7.0,51,0.00,,,0.00,weatherlink.com 1.10,2013-06-06 20:09:00,
2013-06-06 13:24:00,75.3,55.0,30.04,NW,311,1.0,8.0,49,0.00,,,0.00,weatherlink.com 1.10,2013-06-06 20:24:00,
2013-06-06 13:39:00,76.7,55.0,30.03,WSW,248,2.0,7.0,48,0.00,,,0.00,weatherlink.com 1.10,2013-06-06 20:39:00,
2013-06-06 13:54:00,76.6,56.0,30.03,WSW,257,2.0,7.0,49,0.00,,,0.00,weatherlink.com 1.10,2013-06-06 20:54:00,
2013-06-06 14:09:00,77.1,55.0,30.03,West,271,0.0,9.0,47,0.00,,,0.00,weatherlink.com 1.10,2013-06-06 21:09:00,
2013-06-06 14:24:00,77.9,56.0,30.03,NE,53,0.0,7.0,47,0.00,,,0.00,weatherlink.com 1.10,2013-06-06 21:24:00,
2013-06-06 14:39:00,77.9,57.0,30.02,NE,45,0.0,9.0,48,0.00,,,0.00,weatherlink.com 1.10,2013-06-06 21:39:00,
2013-06-06 14:54:00,78.8,57.0,30.01,NW,319,0.0,7.0,47,0.00,,,0.00,weatherlink.com 1.10,2013-06-06 21:54:00,
2013-06-06 15:09:00,78.8,56.0,30.01,South,187,0.0,6.0,46,0.00,,,0.00,weatherlink.com 1.10,2013-06-06 22:09:00,
2013-06-06 15:24:00,79.6,57.0,30.01,SW,231,1.0,8.0,46,0.00,,,0.00,weatherlink.com 1.10,2013-06-06 22:24:00,
2013-06-06 15:39:00,80.3,58.0,30.01,NW,304,0.0,6.0,46,0.00,,,0.00,weatherlink.com 1.10,2013-06-06 22:39:00,
2013-06-06 15:54:00,80.6,58.0,30.01,NNW,348,0.0,6.0,47,0.00,,,0.00,weatherlink.com 1.10,2013-06-06 22:54:00,
2013-06-06 16:09:00,79.2,58.0,30.01,West,276,4.0,7.0,49,0.00,,,0.00,weatherlink.com 1.10,2013-06-06 23:09:00,
2013-06-06 16:25:00,78.9,59.0,30.01,NW,321,2.0,11.0,50,0.00,,,0.00,weatherlink.com 1.10,2013-06-06 23:25:00,
2013-06-06 16:55:00,76.6,57.0,30.02,West,276,6.0,14.0,50,0.00,,,0.00,weatherlink.com 1.10,2013-06-06 23:55:00,
2013-06-06 17:10:00,75.2,55.0,30.03,WNW,302,1.0,10.0,49,0.00,,,0.00,weatherlink.com 1.10,2013-06-07 00:10:00,
2013-06-06 17:25:00,73.9,52.0,30.03,SW,220,2.0,13.0,47,0.00,,,0.00,weatherlink.com 1.10,2013-06-07 00:25:00,
2013-06-06 17:40:00,73.8,44.0,30.03,WSW,258,3.0,15.0,34,0.00,,,0.00,weatherlink.com 1.10,2013-06-07 00:40:00,
2013-06-06 17:55:00,74.1,45.0,30.03,SW,231,3.0,12.0,36,0.00,,,0.00,weatherlink.com 1.10,2013-06-07 00:55:00,
2013-06-06 18:10:00,73.5,47.0,30.03,NW,324,5.0,10.0,39,0.00,,,0.00,weatherlink.com 1.10,2013-06-07 01:10:00,
2013-06-06 18:25:00,72.9,48.0,30.03,WNW,300,5.0,9.0,41,0.00,,,0.00,weatherlink.com 1.10,2013-06-07 01:25:00,
2013-06-06 18:40:00,70.5,46.0,30.03,WNW,294,1.0,11.0,42,0.00,,,0.00,weatherlink.com 1.10,2013-06-07 01:40:00,
2013-06-06 18:55:00,69.8,49.0,30.03,WNW,300,3.0,7.0,47,0.00,,,0.00,weatherlink.com 1.10,2013-06-07 01:55:00,
2013-06-06 19:10:00,68.9,48.0,30.02,SW,217,3.0,8.0,47,0.00,,,0.00,weatherlink.com 1.10,2013-06-07 02:10:00,
2013-06-06 19:25:00,67.7,47.0,30.03,WNW,290,3.0,9.0,47,0.00,,,0.00,weatherlink.com 1.10,2013-06-07 02:25:00,
2013-06-06 19:40:00,66.7,45.0,30.03,WNW,299,2.0,4.0,46,0.00,,,0.00,weatherlink.com 1.10,2013-06-07 02:40:00,
2013-06-06 19:55:00,65.7,48.0,30.04,West,277,1.0,3.0,53,0.00,,,0.00,weatherlink.com 1.10,2013-06-07 02:55:00,
2013-06-06 20:10:00,64.8,48.0,30.04,West,261,1.0,2.0,55,0.00,,,0.00,weatherlink.com 1.10,2013-06-07 03:10:00,
2013-06-06 20:25:00,64.5,46.0,30.05,WNW,290,3.0,8.0,52,0.00,,,0.00,weatherlink.com 1.10,2013-06-07 03:25:00,
2013-06-06 20:40:00,63.2,45.0,30.04,NW,306,0.0,3.0,52,0.00,,,0.00,weatherlink.com 1.10,2013-06-07 03:40:00,
2013-06-06 20:55:00,61.7,48.0,30.04,WNW,295,0.0,0.0,61,0.00,,,0.00,weatherlink.com 1.10,2013-06-07 03:55:00,
2013-06-06 21:10:00,59.8,46.0,30.04,WNW,284,0.0,0.0,60,0.00,,,0.00,weatherlink.com 1.10,2013-06-07 04:10:00,
2013-06-06 21:25:00,58.8,47.0,30.05,WNW,284,0.0,0.0,64,0.00,,,0.00,weatherlink.com 1.10,2013-06-07 04:25:00,
2013-06-06 21:40:00,55.9,46.0,30.06,WNW,284,0.0,0.0,70,0.00,,,0.00,weatherlink.com 1.10,2013-06-07 04:40:00,
2013-06-06 21:55:00,54.4,46.0,30.06,WNW,285,0.0,0.0,73,0.00,,,0.00,weatherlink.com 1.10,2013-06-07 04:55:00,
2013-06-06 22:10:00,52.9,46.0,30.07,WNW,285,0.0,0.0,77,0.00,,,0.00,weatherlink.com 1.10,2013-06-07 05:10:00,
2013-06-06 22:25:00,51.8,46.0,30.07,North,353,0.0,0.0,80,0.00,,,0.00,weatherlink.com 1.10,2013-06-07 05:25:00,
2013-06-06 22:40:00,51.1,46.0,30.07,North,353,0.0,0.0,82,0.00,,,0.00,weatherlink.com 1.10,2013-06-07 05:40:00,
2013-06-06 22:55:00,50.6,46.0,30.07,SSE,150,0.0,0.0,84,0.00,,,0.00,weatherlink.com 1.10,2013-06-07 05:55:00,
2013-06-06 23:10:00,50.0,45.0,30.07,SE,146,0.0,0.0,84,0.00,,,0.00,weatherlink.com 1.10,2013-06-07 06:10:00,
2013-06-06 23:25:00,49.5,46.0,30.08,WNW,295,0.0,0.0,86,0.00,,,0.00,weatherlink.com 1.10,2013-06-07 06:25:00,
2013-06-06 23:40:00,49.1,45.0,30.07,NNW,345,0.0,0.0,86,0.00,,,0.00,weatherlink.com 1.10,2013-06-07 06:40:00,
2013-06-06 23:55:00,48.3,45.0,30.07,ENE,69,0.0,0.0,89,0.00,,,0.00,weatherlink.com 1.10,2013-06-07 06:55:00,